Terug naar catalogus

CZ-4 DEB

ActiefSSO
NORAD 20903·DEBRIS·🇨🇳 China

Gelanceerd Sep 3, 1990 vanaf Taiyuan Satellite Launch Center

Loading…

Volgende Passages (komende 24 uur)

TLE

VersSource: Space-Track

Epoch: Sep 12, 2026, 22:49 UTC

1 20903U 90081BP  26255.95092605  .00000311  00000-0  13409-3 0  9993
2 20903  98.4279 255.4460 0055085 180.3359 242.4721 14.30270005866737

Volg CZ-4 DEB in realtime met AllMySat

Download on the App Store